Regional Weather Roundup
Issued by NWS

Home | Current Version | Previous Version | Graphics & Text | Print | Product List | Glossary On
Versions: 1 2 3 4 5 6 7 8 9 10 11 12 13 14 15 16 17 18 19 20 21 22 23 24 25 26 27 28 29 30 31 32 33 34 35 36 37 38 39 40 41 42 43 44 45 46 47 48 49 50
000
ASUS43 KMKX 291711
RWRWI

WISCONSIN REGIONAL WEATHER ROUNDUP
NATIONAL WEATHER SERVICE MILWAUKEE/SULLIVAN WI
1200 PM CDT FRI AUG 29 2014

NOTE: "FAIR" INDICATES FEW OR NO CLOUDS BELOW 12,000 FEET WITH NO
SIGNIFICANT WEATHER AND/OR OBSTRUCTIONS TO VISIBILITY.

WIZ001-002-006>008-014>016-023>028-291800-
NORTHWEST WISCONSIN

CITY           SKY/WX    TMP DP  RH WIND       PRES   REMARKS
SUPERIOR ARPT  CLOUDY    63  63  98 NE3       29.78F
ASHLAND        LGT RAIN  64  62  93 S6        29.81F
HAYWARD        CLOUDY    64  62  93 S8        29.83F
SIREN          RAIN      65  64  97 SE5       29.80F
RICE LAKE      CLOUDY    66  64  93 SE6       29.85F FOG
LADYSMITH      RAIN      67  65  94 SE6       29.87F
EAU CLAIRE     CLOUDY    73  68  84 S12       29.83F
MENOMONIE      PTSUNNY   74  69  83 SE9       29.82F
NEW RICHMOND   CLOUDY    75  68  79 SW9       29.80F
OSCEOLA        LGT RAIN  72  72  98 S8        29.81F
$$

WIZ003>005-009-010-017-018-291800-
NORTH CENTRAL WISCONSIN

CITY           SKY/WX    TMP DP  RH WIND       PRES   REMARKS
WOODRUFF       CLOUDY    63  61  94 SE8       29.89F
RHINELANDER    CLOUDY    62  61  96 S7        29.91F FOG
EAGLE RIVER    CLOUDY    63  62  99 S8        29.91F
LAND O LAKES   CLOUDY    62  61  96 SE5       29.91F
PHILLIPS       CLOUDY    64  63  96 S7        29.87F
TOMAHAWK       FOG       62  61  96 SE5       29.91F VSB 1
MEDFORD        CLOUDY    64  64 100 S9        29.89F FOG
MERRILL        CLOUDY    64  64 100 S6        29.90F FOG
$$

WIZ029-030-035-036-043>047-291800-
CENTRAL WISCONSIN

CITY           SKY/WX    TMP DP  RH WIND       PRES   REMARKS
WAUSAU         CLOUDY    65  64  97 SE7       29.89F FOG
MOSINEE        FOG       64  64 100 S7        29.92  VSB 1
MARSHFIELD     CLOUDY    70  67  90 S10       29.89F FOG
STEVENS POINT  CLOUDY    68  65  91 S8        29.91F FOG
WAUPACA        CLOUDY    74  69  86 S7        29.91F HAZE
WAUTOMA        CLOUDY    76  69  79 S6        29.90F
WISC RAPIDS    CLOUDY    71  67  87 S6        29.91S
CAMP DOUGLAS   PTSUNNY   77  73  88 S12       29.88F
$$

WIZ011>013-019>022-031-037>040-048>050-291800-
NORTHEAST WISCONSIN

CITY           SKY/WX    TMP DP  RH WIND       PRES   REMARKS
ANTIGO         FOG       62  62 100 SE8       29.93F VSB 1/4
STURGEON BAY   CLOUDY    68  64  88 S17G24    29.93F
GREEN BAY      PTSUNNY   77  71  82 S10       29.89F
MANITOWOC      PTSUNNY   73  69  87 S21G26    29.93F
APPLETON       PTSUNNY   75  70  83 S14       29.91F
CLINTONVILLE   CLOUDY    72  66  83 SW7       29.91S
OSHKOSH        MOSUNNY   80  70  71 S15       29.90F HX  83
$$

WIZ032>034-041-042-053>061-291800-
SOUTHWEST WISCONSIN

CITY           SKY/WX    TMP DP  RH WIND       PRES   REMARKS
LA CROSSE      MOSUNNY   80  70  71 S15       29.84F HX  83
SPARTA         MOSUNNY   77  67  71 S8        29.87F
VIROQUA        CLOUDY    75  72  92 S8        29.89S
BOSCOBEL       SUNNY     83  69  62 S8        29.86F HX  86
PRAIRIE DU CHI MOSUNNY   80  68  66 SE8       29.85F HX  83
PLATTEVILLE    FAIR      80  72  77 S10       29.91F HX  83
$$

WIZ056-057-062-063-064-067-068-291800-
SOUTH CENTRAL WISCONSIN

CITY           SKY/WX    TMP DP  RH WIND       PRES   REMARKS
BARABOO/DELLS  SUNNY     80  67  66 S10       29.89F HX  82
LONE ROCK      SUNNY     84  71  65 S8        29.88F HX  89
WATERTOWN      SUNNY     80  71  74 S12G20    29.92F HX  84
MADISON        MOSUNNY   80  69  69 S15       29.91F HX  83
MIDDLETON      FAIR      81  69  65 S13       29.91F HX  84
MONROE         MOSUNNY   77  70  78 S14G20    29.93F
JANESVILLE     PTSUNNY   81  70  69 S15       29.93F HX  84
$$

WIZ051-052-058>065-066-070>072-291800-
SOUTHEAST WISCONSIN

CITY           SKY/WX    TMP DP  RH WIND       PRES   REMARKS
MILWAUKEE      PTSUNNY   73  69  87 S12       29.95F
WAUKESHA       MOSUNNY   75  70  83 S12       29.97S
MILWAUKEE/TIMM MOSUNNY   75  66  73 S12G17    29.95F
RACINE         PTSUNNY   73  69  87 S12       29.98F
BURLINGTON     PTSUNNY   75  71  87 S5        29.96S
KENOSHA        PTSUNNY   79  73  82 S9        29.96F HX  82
FOND DU LAC    SUNNY     81  69  67 S17       29.90F HX  84
SHEBOYGAN      MOSUNNY   78  70  76 S12       29.93F HX  80
WEST BEND      SUNNY     79  66  65 S10G18    29.93F HX  81
JUNEAU         MOSUNNY   80  70  71 S15       29.93F HX  83
$$

LSZ147-162-291800-
LAKE SUPERIOR

STATION/POSITION TIME  TEMP    WIND        PRES    WAVE
                       AIR SEA DIR/SP/G            HT/PER
                 (UTC) (F)     (DEG/KT/KT) (MB)    (FT/S)
W MID LAKE BUOY  1650   59 58  130/ 10/ 12 1010.1F   1/ 3
DEVILS ISLAND    1600   61     150/  6/  9 1010.1S
PORT WING        1640   64     240/  2/  6 1009.1F
SAXON HARBOR     1600   65     200/  3/  8 1009.8F
$$

LMZ867-665-643>646-291800-
LAKE MICHIGAN

STATION/POSITION TIME  TEMP    WIND        PRES    WAVE
                       AIR SEA DIR/SP/G            HT/PER
                 (UTC) (F)     (DEG/KT/KT) (MB)    (FT/S)
N MID LAKE BUOY  1650   64 65  170/ 16/ 19 1013.9F   3/ 4
NORTHPORT PIER   1600   65     150/  9/ 12 1014.2F
SISTER BAY       1556   64     180/ 13/ 15   N/A
KEWAUNEE LAKESHO 1600   67     170/ 15/ 17 1013.3F
SHEBOYGAN LAKESH 1700   68 69  170/ 18/ 19 1013.3F
ATWATER BUOY     1600   70     160/ 10/ 12 1015.8R
MILWAUKEE LAKESH 1600   71     180/  8/ 10   N/A
S MID LAKE BUOY  1650   70 69  180/ 12/ 14 1015.4S   4/ 5
KENOSHA   LAKESH 1700   73     170/ 14/ 16 1013.9F
$$

TC  - TEMPERATURE IN CELSIUS
VSB - VISIBILITY IN STATUTE MILES
WCI - WIND CHILL INDEX
HX  - HEAT INDEX




USA.gov is the U.S. government's official web portal to all federal, state and local government web resources and services.